sat.trackr.live / text

‹ back to catalog

STARLINK-32569

NORAD 61867 · 2024-202Y

PAYLOAD ACTIVE UNKNOWN

§ Identity

Operator
Country
US
Launch date
2024-11-07
Launch site
AFETR
Launch vehicle
Mass (kg)
RCS (m²)

Purposes: comms

External: N2YO · Heavens-Above · Gunter

§ Orbital elements

Epoch: 2026-05-25T01:34:15.719808Z

Period
94.27 min
Inclination
43.0004°
Eccentricity
0.0001539
Mean motion
15.27580587 rev/d
Perigee alt
482.0 km
Apogee alt
484.1 km
Semi-major
6,861.2 km
B*
3.2618e-5
RAAN
167.0570°
Arg perigee
262.8621°
Mean anomaly
97.2055°
Rev number
8,701

§ Raw data

STARLINK-325691 61867U 24202Y   26145.06545972  .00000636  00000+0  32618-4 0  99922 61867  43.0004 167.0570 0001539 262.8621  97.2055 15.27580587 87014

JSON: /api/v1/satellites/61867 · /tle

For live sub-satellite position, see the globe view (requires WebGL).

§ Visibility from observer

Set your observer location to see the next 7 days of passes ≥ 10°. The values pass through the URL so the page stays shareable.

No JS? Fill the form by hand. The geolocation button needs JavaScript.